Location: Mexico
(19.4000°N, 99.1500°W)
Time: 02:04:36
(UTC-06:00)

ISS - Pass Details

Date: 20 November 2017
Orbit: 402 x 407 km, 51.6° (Epoch: 21 November)

Event Time Altitude Azimuth Distance (km) Brightness Sun altitude
Rises 19:24:56 0° 197° (SSW) 2,309 0.5 -20.6°
Reaches altitude 10° 19:27:13 10° 184° (S) 1,451 -0.8 -21.1°
Enters shadow 19:28:10 16° 172° (S) 1,140 -1.5 -21.4°
